Weather History for Chamberlain, SD

Change the Weather History Date:

Saturday, January 19, 2013

  Actual Average Record
Temperature  
Mean Temperature 27 °F -  
Max Temperature 44 °F 27 °F 55 °F (2014)
Min Temperature 9 °F 8 °F -11 °F (2008)
Degree Days  
Heating Degree Days 38    
Moisture  
Dew Point 20 °F    
Average Humidity 62    
Maximum Humidity 72    
Minimum Humidity 51    
Precipitation  
Precipitation 0.00 in - - ()
Sea Level Pressure  
Sea Level Pressure 30.11 in    
Wind  
Wind Speed 13 mph (NW)    
Max Wind Speed 22 mph    
Max Gust Speed 30 mph    
Averages and records for this station are not official NWS values.
T = Trace of Precipitation, MM = Missing Value Source: NWS Daily Summary

Daily Weather History Graph

Daily Weather History Graph

Search for Another Location

Airport:

Trip Planner

Search our weather history database for the weather conditions in past years. The results will help you decide how hot, cold, wet, or windy it might be!

Date:

Astronomy

Jan. 19, 2013 Rise Set
Actual Time 8:05 AM CST 5:31 PM CST
Civil Twilight 7:33 AM CST 6:02 PM CST
Nautical Twilight 6:58 AM CST 6:38 PM CST
Astronomical Twilight 6:24 AM CST 7:12 PM CST
Moon 12:00 PM CST (1/19) 1:38 AM CST (1/19)
Length of Visible Light 10h 28m
Length of Day
9h 25m
First Quarter, 57% of the Moon is Illuminated
Jan 19
First Quarter
Jan 26
Full
Feb 3
Last Quarter
Feb 10
New
Feb 17
First Quarter

Hourly Weather History & Observations

Time (CST) Temp. Windchill Dew Point Humidity Pressure Visibility Wind Dir Wind Speed Gust Speed Precip Events Conditions
12:36 AM 41.0 °F 33.9 °F 26.6 °F 57% 29.81 in - NW 12.7 mph - N/A   Unknown
12:52 AM 39.9 °F 34.5 °F 26.1 °F 58% 29.83 in - NW 8.1 mph - N/A   Unknown
1:52 AM 39.0 °F 32.8 °F 27.0 °F 62% 29.83 in - West 9.2 mph - N/A   Unknown
2:52 AM 39.0 °F 31.8 °F 26.1 °F 60% 29.85 in - West 11.5 mph - N/A   Unknown
3:52 AM 39.0 °F 30.3 °F 26.1 °F 60% 29.84 in - West 16.1 mph - N/A   Unknown
4:52 AM 37.0 °F 28.5 °F 25.0 °F 62% 29.87 in - West 13.8 mph - N/A   Unknown
5:52 AM 35.1 °F 29.3 °F 25.0 °F 67% 29.90 in - WNW 6.9 mph - N/A   Unknown
6:52 AM 35.1 °F 26.9 °F 25.0 °F 67% 29.93 in - WNW 11.5 mph - N/A   Unknown
7:52 AM 37.9 °F 30.9 °F 25.0 °F 60% 29.96 in - NW 10.4 mph - N/A   Unknown
8:52 AM 37.9 °F 29.6 °F 26.1 °F 62% 30.01 in - NW 13.8 mph 19.6 mph N/A   Unknown
9:52 AM 39.0 °F 32.8 °F 27.0 °F 62% 30.04 in - NW 9.2 mph - N/A   Unknown
10:52 AM 41.0 °F 33.5 °F 28.0 °F 60% 30.07 in - WNW 13.8 mph 19.6 mph N/A   Unknown
11:52 AM 43.0 °F 34.5 °F 28.0 °F 56% 30.08 in - NW 19.6 mph 29.9 mph N/A   Unknown
12:52 PM 44.1 °F 35.4 °F 27.0 °F 51% 30.09 in - NW 21.9 mph 28.8 mph N/A   Unknown
1:52 PM 42.1 °F 33.1 °F 28.0 °F 58% 30.12 in - NW 20.7 mph 26.5 mph N/A   Unknown
2:52 PM 39.0 °F 30.3 °F 28.9 °F 67% 30.17 in - NNW 16.1 mph 27.6 mph N/A   Unknown
3:52 PM 30.0 °F 18.3 °F 21.9 °F 72% 30.24 in - North 17.3 mph 26.5 mph N/A   Unknown
4:52 PM 28.9 °F 16.5 °F 15.1 °F 56% 30.29 in - NNW 18.4 mph 26.5 mph N/A   Unknown
5:52 PM 25.0 °F 12.6 °F 14.0 °F 63% 30.34 in - North 15.0 mph 21.9 mph N/A   Unknown
6:52 PM 21.0 °F 7.6 °F 10.9 °F 65% 30.37 in - North 15.0 mph 21.9 mph N/A   Unknown
7:52 PM 17.1 °F 2.0 °F 9.0 °F 71% 30.38 in - North 16.1 mph 23.0 mph N/A   Unknown
8:52 PM 14.0 °F -3.4 °F 3.9 °F 64% 30.39 in - North 19.6 mph - N/A   Unknown
9:52 PM 10.9 °F -4.1 °F 1.0 °F 64% 30.40 in - NNE 12.7 mph - N/A   Unknown
10:52 PM 10.0 °F -3.7 °F -0.9 °F 61% 30.41 in - NNE 10.4 mph - N/A   Unknown
11:52 PM 9.0 °F -4.2 °F -0.9 °F 64% 30.41 in - North 9.2 mph - N/A   Unknown